This is the latest recevied weather packets stored in our database for station/object KE8ZLU. If no packets are shown the sender has not sent any weather packets the latest 10 day(s).
| Time | Temp. | Humidity | Pressure | Rain* | Wind** | Luminosity | Snow |
|---|---|---|---|---|---|---|---|
| 1778005978 | 11.67° C | 67% | 1009.4 hPa | 0 mm | - | 135 W/m² | - |
| 1778005675 | 11.67° C | 67% | 1009.1 hPa | 0 mm | - | 169 W/m² | - |
| 1778005372 | 11.67° C | 68% | 1009.1 hPa | 0 mm | - | 268 W/m² | - |
| 1778005068 | 11.67° C | 68% | 1009.4 hPa | 0 mm | - | 321 W/m² | - |
| 1778004766 | 11.67° C | 65% | 1009.3 hPa | 0 mm | - | 490 W/m² | - |
| 1778004462 | 11.67° C | 67% | 1009.3 hPa | 0 mm | - | 438 W/m² | - |
| 1778004159 | 11.11° C | 69% | 1009.3 hPa | 0 mm | - | 277 W/m² | - |
| 1778003855 | 11.11° C | 67% | 1008.9 hPa | 0 mm | - | 266 W/m² | - |
| 1778003552 | 11.67° C | 67% | 1008.9 hPa | 0 mm | - | 167 W/m² | - |
| 1778003249 | 11.67° C | 68% | 1008.9 hPa | 0 mm | - | 328 W/m² | - |
| 1778002945 | 11.67° C | 67% | 1008.7 hPa | 0 mm | - | 432 W/m² | - |
| 1778002641 | 11.67° C | 72% | 1008.6 hPa | 0 mm | - | 370 W/m² | - |
| 1778002338 | 11.67° C | 71% | 1008.5 hPa | 0 mm | - | 368 W/m² | - |
| 1778002035 | 11.67° C | 71% | 1008.7 hPa | 0 mm | - | 362 W/m² | - |
| 1778001733 | 11.11° C | 75% | 1008.7 hPa | 0 mm | - | 325 W/m² | - |
| 1778001432 | 11.11° C | 74% | 1008.3 hPa | 0 mm | - | 341 W/m² | - |
| 1778001130 | 11.11° C | 76% | 1008.5 hPa | 0 mm | - | 293 W/m² | - |
| 1778000826 | 10.56° C | 74% | 1008.3 hPa | 0 mm | - | 259 W/m² | - |
| 1778000524 | 10.56° C | 78% | 1008.5 hPa | 0 mm | - | 288 W/m² | - |
| 1778000224 | 10.56° C | 78% | 1008.7 hPa | 0 mm | - | 288 W/m² | - |
| 1777999920 | 10.56° C | 82% | 1008.5 hPa | 0 mm | - | 315 W/m² | - |
| 1777999615 | 10.56° C | 82% | 1008.6 hPa | 0 mm | - | 315 W/m² | - |
| 1777999313 | 10.56° C | 82% | 1008.5 hPa | 0 mm | - | 315 W/m² | - |
| 1777999011 | 10.56° C | 81% | 1008.3 hPa | 0 mm | - | 315 W/m² | - |
| 1777998709 | 10.56° C | 81% | 1008.6 hPa | 0 mm | - | 344 W/m² | - |
* Rain latest hour (hover to see other rain measurements)
** Current wind speed in m/s (hover to see current wind gust speed)